Volver al catálogo

LES 6

ActivoMilitarGEO
NORAD 3431·PAYLOAD·🇺🇸 United States

Lanzado Sep 26, 1968 desde Cape Canaveral Space Force Station

Loading…

TLE

ActualizadoSource: Space-Track

Época: Sep 14, 2026, 13:15 UTC

1 03431U 68081D   26257.55235079 -.00000044  00000-0  00000-0 0  9991
2 03431   1.7056  44.4976 0007753 289.8432 102.6558  1.00349706121689

Sigue LES 6 en tiempo real con AllMySat

Download on the App Store